Regional Weather Roundup
Issued by NWS Jackson, KY

Home | Current Version | Previous Version | Graphics & Text | Print | Product List | Glossary On
Versions: 1 2 3 4 5 6 7 8 9 10 11 12 13 14 15 16 17 18 19 20 21 22 23 24 25 26 27
000
ASUS43 KJKL 100210
RWRJKL

EAST KENTUCKY HOURLY WEATHER ROUNDUP
NATIONAL WEATHER SERVICE JACKSON KY
900 PM EST SAT DEC 09 2017

NOTE: "FAIR" INDICATES FEW OR NO CLOUDS BELOW 12,000 FEET WITH
NO SIGNIFICANT WEATHER AND/OR OBSTRUCTIONS TO VISIBILITY.

* THESE REPORTS ARE NOT UNDER NWS QUALITY CONTROL AND MAY NOT
  REPORT WEATHER SUCH AS PRECIPITATION AND FOG.

KYZ079-080-083-085-087-088-110-112-115-119-120-100300
...EASTERN KENTUCKY...

CITY           SKY/WX    TMP DP  RH WIND       PRES   REMARKS
JACKSON        LGT SNOW  27  25  92 VRB6      29.99R FOG     WCI  20
LONDON         LGT SNOW  29  25  85 W10       30.03R FOG     WCI  20
SOMERSET*      CLOUDY    30  23  74 W14G20    30.09R WCI  20
MONTICELLO*    FLURRIES  31  26  82 W20       30.10R WCI  19
WILLIAMSBURG*  CLOUDY    28  27  93 W7        30.06R WCI  21
MIDDLESBORO*   CLOUDY    31  23  72 W5        30.06R WCI  26
HARLAN APT*    CLOUDY    30  25  80 SW3       30.01R
PIKE CO APT*   CLOUDY    28  24  84 W7        29.96R WCI  21
BIG SANDY APT* LGT RAIN  30  24  81 W7G16     29.97R WCI  23
MOREHEAD APT*  CLOUDY    28  23  80 VRB6G13   30.00R WCI  22
$$

KYZ035-036-041-042-044-050-067-078-099-100300
...CENTRAL KENTUCKY...

CITY           SKY/WX    TMP DP  RH WIND       PRES   REMARKS
MT STERLING*   MOCLDY    28  27  93 W8        30.02R WCI  20
FLEMING/MASON* CLOUDY    27  25  91 W17       29.98R WCI  15
DANVILLE*      CLOUDY    30  21  69 W13       30.06R WCI  20
LEXINGTON      PTCLDY    27  21  78 W10G21    30.03R WCI  17
FRANKFORT      CLOUDY    29  19  66 W8        30.03R WCI  21
LOUISVILLE     MOCLDY    31  17  56 W16G25    30.09R WCI  20
LEBANON*         N/A     28  19  69 W10       30.08R WCI  19
GLASGOW*       CLOUDY    31  20  63 NW7       30.13R WCI  25
BOWLING GREEN  CLOUDY    35  18  49 NW9       30.15R WCI  28
$$

KYZ091>093-OHZ055-061-077-WVZ005-015-034-035-042-100300
...SOUTHERN OHIO/WEST VIRGINIA...

CITY           SKY/WX    TMP DP  RH WIND       PRES   REMARKS
COVINGTON      CLOUDY    28  23  81 W14       29.97R WCI  17
COLUMBUS       FLURRIES  28  25  88 SW8       29.87R WCI  20
DAYTON         LGT SNOW  28  27  96 W15       29.91R FOG     WCI  16
WILMINGTON     LGT SNOW  27  25  92 W18G25    29.90R FOG     WCI  14
HUNTINGTON     CLOUDY    30  23  75 SW9       29.95R WCI  22
CHARLESTON     FLURRIES  30  23  75 W10G20    29.93R WCI  21
PINEVILLE*     LGT SNOW  29  26  86 MISG      29.95R
BECKLEY        LGT SNOW  26  20  77 W9        29.83R WCI  17
BLUEFIELD      FLURRIES  25  17  72 W14G28    29.82R WCI  13
LOGAN CO APT*  FLURRIES  28  23  80 VRB7G14   29.92R WCI  21
$$

VAZ002-007-008-TNZ017-027-036-066-071-100300
...SOUTHWEST VIRGINIA/EAST TENNESSEE...

CITY           SKY/WX    TMP DP  RH WIND       PRES   REMARKS
WISE*          CLOUDY    27  21  80 W8        29.92R WCI  18
JONESVILLE*    LGT SNOW  30  23  74 W5        30.04R WCI  25
ABINGDON*      LGT SNOW  30  26  86 NW12G21   29.92R VSB 1   WCI  20
BRISTOL        LGT SNOW  30  26  85 NW18      29.98R FOG     WCI  18
MORRISTOWN*    CLOUDY    32  21  64 NW10      30.03R WCI  24
SEVIERVILLE*   CLOUDY    34  23  64 NW5G16    30.08R WCI  30
KNOXVILLE      CLOUDY    32  25  75 NW6       30.08R WCI  26
LAFOLLETTE*    CLOUDY    32  25  74 VRB5G12   30.10R HAZE    WCI  27
OAK RIDGE      CLOUDY    33  23  66 W5        30.10R WCI  29
CROSSVILLE     CLOUDY    28  18  66 W10       30.06R WCI  19
NASHVILLE      CLOUDY    35  20  54 W9        30.17R WCI  28
$$

...KEY TO REMARKS...
VSB - VISIBILITY IN MILES
WCI - WIND CHILL INDEX
HX  - HEAT INDEX

$$




USA.gov is the U.S. government's official web portal to all federal, state and local government web resources and services.